Weather in Mezhdurechensky

Russia / Khanty-Mansi Autonomous Okrug — Yugra     59°35′25″N   65°54′33″E
temp.,
°C
wind,
m/s
gust,
m/s
humid.,
%
clouds,
%
prec.,
mm/h
press.,
hPa
HPBL,
m
7 may, fri
fri723:00+6w6126284 0.1 10081322
02:00+4w612685 0.0 10101159
05:00+3w512715 0.0 1012872
08:00+7w613530 0.0 10131069
11:00+12w712395 0.0 10141368
14:00+16w6124116 0.0 10141659
17:00+18w5124810 0.0 10142173
20:00+15wsw246413 0.0 101468
8 may, sat
sat823:00+12wsw311725 0.0 1015230
02:00+10wsw38815 0.0 1016153
05:00+9w268328 0.0 1017112
08:00+14wsw256698 0.0 1017218
11:00+18wsw354857 0.0 1018851
14:00+22w453069 0.0 10172641
17:00+21w4434100 0.0 10172245
20:00+16n1156100 0.0 101713
9 may, sun
sun923:00+13nne116498 0.0 101811
02:00+13wnw116797 0.0 101811
05:00+11nne388496 0.0 1020252
08:00+15ne35668 0.0 1020390
11:00+19ne34494 0.0 10211066
14:00+21ne323939 0.0 10202218
17:00+19ne354462 0.0 1020669
20:00+16ene25562 0.0 102190
10 may, mon
mon1023:00+12ene25580 0.0 102295
02:00+10e265761 0.0 1022120
05:00+9e25690 0.0 1023113
08:00+14ese35550 0.0 1023373
11:00+19ese22370 0.0 1023964
14:00+22se22320 0.0 10211706
17:00+22sse243310 0.0 10192278
20:00+18se3848100 0.0 1018201
11 may, tue
tue1123:00+14s31147100 0.0 1019222
02:00+11nw61083100 0.1 1018424
05:00+8nw61186100 0.6 1021701
08:00+7nnw5108042 0.6 1022967
11:00+13nnw69415 0.7 10231909
14:00+15nnw69305 0.0 10232287
17:00+15nnw58275 0.0 10232454
20:00+12nw114218 0.0 102410